GFSGL_500_temp_210.txt.gz
Temp
-13 -13 -13 -14 -14 -14 -14 -14 -15 -15 -15 -15 -16 -16 -16 -17 -18 -18 -18 -18 -18 -18 -19 -20 -21 -21 -21 -21 -21 -21 -21 -21 -20 -19 -20 -20 -20 -20 -20 -20 -20 -20 -19
-14 -14 -14 -14 -15 -15 -15 -15 -15 -16 -16 -17 -17 -18 -18 -19 -19 -18 -18 -18 -18 -20 -20 -21 -21 -21 -21 -21 -21 -21 -20 -20 -20 -20 -20 -20 -20 -20 -20 -20 -20 -20 -20
-14 -14 -15 -15 -16 -16 -16 -16 -17 -17 -18 -19 -19 -18 -18 -18 -18 -18 -18 -19 -19 -20 -21 -21 -21 -21 -21 -21 -21 -20 -20 -20 -20 -20 -20 -20 -20 -20 -20 -20 -20 -20 -20
-16 -16 -16 -16 -16 -17 -17 -18 -18 -19 -19 -19 -19 -18 -18 -18 -18 -18 -19 -20 -21 -21 -21 -21 -21 -21 -21 -21 -20 -20 -20 -20 -20 -20 -20 -20 -20 -20 -20 -20 -20 -20 -20
-16 -16 -16 -16 -17 -18 -18 -19 -19 -19 -19 -19 -19 -19 -18 -19 -20 -21 -21 -21 -21 -21 -21 -21 -21 -21 -21 -21 -20 -20 -20 -20 -20 -20 -20 -20 -20 -20 -20 -20 -20 -20 -20
-17 -17 -18 -18 -19 -20 -20 -20 -19 -19 -19 -19 -19 -19 -20 -21 -21 -21 -21 -21 -21 -21 -21 -21 -21 -21 -21 -21 -21 -21 -21 -21 -21 -21 -21 -21 -20 -22 -22 -22 -22 -22 -21
-19 -19 -20 -20 -20 -20 -19 -19 -19 -19 -19 -19 -20 -21 -21 -21 -21 -21 -21 -21 -21 -21 -21 -21 -21 -21 -21 -21 -21 -21 -21 -22 -23 -23 -22 -22 -22 -23 -22 -22 -22 -22 -22
-20 -20 -20 -20 -19 -19 -19 -19 -19 -19 -20 -21 -21 -21 -21 -21 -21 -21 -21 -21 -21 -21 -21 -21 -21 -21 -21 -21 -21 -22 -23 -23 -23 -23 -23 -23 -23 -23 -23 -23 -22 -22 -22
-20 -20 -19 -19 -19 -19 -19 -19 -20 -21 -21 -21 -21 -21 -21 -21 -21 -21 -21 -21 -21 -21 -21 -21 -21 -22 -23 -23 -23 -22 -22 -23 -23 -23 -23 -23 -23 -23 -23 -23 -23 -23 -23
-20 -20 -19 -19 -20 -20 -20 -21 -21 -21 -22 -21 -21 -21 -21 -21 -22 -21 -21 -21 -21 -21 -22 -22 -22 -22 -23 -23 -24 -24 -23 -23 -23 -23 -23 -23 -23 -24 -25 -26 -27 -28 -29
-20 -20 -20 -20 -21 -21 -21 -21 -21 -21 -21 -21 -21 -22 -22 -22 -22 -22 -22 -22 -21 -21 -21 -21 -23 -24 -24 -24 -24 -24 -24 -24 -24 -24 -24 -24 -25 -26 -29 -31 -32 -33 -34
-20 -21 -21 -21 -21 -21 -21 -21 -21 -21 -21 -22 -22 -22 -22 -22 -22 -22 -23 -23 -23 -24 -24 -24 -24 -24 -24 -25 -25 -25 -26 -26 -26 -27 -28 -30 -31 -32 -32 -33 -34 -35 -35
-21 -21 -21 -21 -21 -21 -21 -21 -22 -22 -21 -22 -22 -22 -22 -22 -23 -23 -24 -24 -25 -24 -25 -25 -25 -25 -26 -26 -27 -27 -28 -29 -30 -32 -32 -33 -34 -34 -34 -35 -35 -35 -35
-21 -21 -21 -21 -21 -21 -22 -22 -21 -21 -22 -22 -22 -22 -23 -23 -24 -24 -24 -24 -25 -25 -25 -26 -26 -27 -28 -29 -29 -30 -31 -33 -34 -34 -34 -35 -36 -36 -36 -36 -36 -36 -36
-21 -21 -21 -22 -22 -22 -21 -21 -22 -22 -22 -22 -23 -23 -23 -24 -24 -25 -25 -25 -26 -26 -27 -28 -28 -29 -30 -31 -32 -33 -35 -35 -35 -36 -36 -37 -37 -37 -37 -37 -37 -37 -36
-21 -22 -22 -22 -22 -22 -22 -22 -23 -23 -23 -23 -23 -23 -24 -25 -26 -26 -27 -27 -28 -29 -29 -30 -30 -31 -33 -33 -34 -35 -35 -35 -36 -36 -37 -38 -38 -37 -38 -37 -37 -36 -36
-22 -22 -22 -22 -22 -22 -23 -23 -24 -24 -24 -25 -25 -26 -27 -27 -27 -28 -28 -29 -30 -30 -31 -32 -33 -34 -34 -35 -36 -36 -36 -36 -36 -37 -38 -38 -38 -38 -38 -37 -36 -36 -35
-22 -22 -22 -22 -23 -23 -23 -24 -24 -24 -25 -27 -28 -27 -28 -28 -29 -29 -29 -30 -31 -32 -33 -34 -35 -35 -35 -36 -37 -36 -36 -37 -37 -38 -39 -39 -39 -38 -38 -37 -36 -36 -35
-22 -22 -23 -23 -23 -24 -24 -24 -24 -25 -25 -26 -27 -28 -28 -29 -30 -31 -31 -32 -33 -33 -34 -35 -35 -35 -37 -37 -37 -37 -37 -37 -37 -38 -39 -39 -39 -38 -38 -37 -36 -36 -35
-23 -23 -23 -24 -24 -24 -24 -25 -25 -26 -27 -27 -28 -28 -28 -29 -30 -31 -32 -33 -34 -35 -36 -36 -36 -37 -37 -37 -37 -37 -37 -38 -38 -39 -39 -39 -39 -39 -38 -37 -36 -36 -35
-23 -23 -24 -24 -25 -25 -25 -25 -26 -27 -28 -28 -29 -29 -30 -30 -31 -32 -33 -34 -35 -36 -36 -37 -37 -38 -38 -38 -38 -38 -38 -38 -38 -39 -39 -40 -39 -39 -38 -37 -37 -36 -36
-24 -24 -25 -25 -25 -25 -26 -27 -27 -28 -29 -29 -29 -30 -31 -32 -33 -34 -35 -36 -36 -37 -37 -37 -38 -38 -38 -39 -38 -38 -38 -38 -39 -39 -40 -40 -40 -39 -38 -38 -37 -37 -36
-24 -25 -25 -25 -26 -26 -27 -28 -29 -29 -29 -30 -30 -31 -32 -33 -35 -36 -36 -37 -37 -37 -38 -39 -39 -39 -39 -39 -39 -39 -39 -39 -39 -39 -40 -40 -40 -39 -39 -38 -38 -37 -37
-25 -25 -26 -26 -27 -28 -28 -29 -29 -30 -30 -31 -31 -32 -34 -35 -36 -37 -37 -37 -38 -38 -39 -39 -39 -39 -39 -39 -39 -39 -39 -39 -39 -40 -40 -40 -40 -40 -39 -38 -38 -38 -37
-26 -26 -27 -27 -28 -29 -29 -30 -30 -30 -31 -32 -33 -35 -36 -37 -37 -37 -38 -38 -38 -39 -39 -39 -39 -39 -40 -40 -40 -40 -40 -40 -40 -40 -40 -41 -41 -40 -40 -39 -38 -38 -37
-27 -27 -28 -28 -29 -30 -30 -30 -31 -32 -33 -34 -35 -36 -37 -37 -38 -38 -38 -39 -39 -39 -39 -40 -40 -40 -40 -40 -41 -41 -41 -41 -41 -40 -40 -41 -41 -40 -40 -39 -39 -38 -38

GFSGL_500_temp_216.txt.gz
Temp
-13 -14 -14 -14 -14 -14 -14 -14 -15 -15 -15 -15 -16 -17 -17 -17 -17 -17 -17 -18 -18 -18 -19 -19 -19 -19 -19 -20 -20 -20 -20 -20 -20 -20 -20 -20 -20 -20 -20 -20 -20 -20 -20
-14 -14 -14 -14 -15 -15 -15 -15 -15 -16 -16 -16 -17 -17 -17 -18 -18 -18 -18 -19 -19 -19 -19 -19 -20 -20 -21 -20 -20 -20 -20 -21 -21 -20 -20 -20 -20 -21 -21 -21 -21 -21 -20
-14 -15 -16 -15 -15 -15 -15 -16 -16 -17 -17 -17 -17 -17 -18 -18 -19 -19 -19 -19 -19 -19 -20 -20 -21 -20 -20 -20 -20 -20 -21 -21 -21 -21 -21 -21 -21 -21 -21 -21 -21 -20 -21
-15 -16 -16 -16 -16 -17 -17 -17 -17 -17 -17 -17 -18 -18 -19 -19 -19 -20 -19 -19 -20 -21 -21 -20 -20 -20 -20 -20 -20 -21 -21 -21 -21 -21 -22 -22 -22 -22 -22 -21 -21 -21 -21
-17 -16 -16 -16 -17 -17 -17 -17 -17 -17 -18 -18 -19 -19 -19 -19 -20 -20 -20 -20 -21 -20 -21 -20 -21 -20 -20 -21 -21 -21 -21 -22 -22 -22 -22 -22 -22 -22 -22 -22 -22 -22 -22
-16 -17 -17 -17 -17 -17 -17 -18 -18 -19 -19 -19 -19 -19 -20 -20 -20 -20 -21 -21 -21 -20 -21 -21 -21 -21 -21 -22 -22 -22 -22 -22 -23 -23 -23 -23 -23 -24 -24 -23 -23 -23 -22
-17 -18 -18 -18 -18 -18 -19 -20 -20 -20 -20 -20 -20 -20 -20 -20 -21 -21 -21 -21 -21 -21 -21 -22 -21 -22 -22 -22 -22 -23 -23 -24 -24 -24 -25 -26 -25 -24 -25 -24 -24 -24 -23
-18 -18 -18 -19 -19 -20 -20 -20 -20 -20 -19 -19 -20 -21 -21 -21 -20 -21 -21 -21 -21 -22 -22 -22 -22 -22 -22 -22 -23 -24 -24 -25 -25 -26 -26 -25 -26 -26 -26 -26 -25 -25 -25
-19 -19 -20 -20 -20 -20 -20 -20 -20 -19 -20 -21 -21 -21 -21 -21 -21 -21 -21 -22 -22 -22 -22 -22 -23 -23 -23 -24 -24 -25 -25 -26 -26 -26 -26 -27 -27 -28 -28 -28 -28 -29 -30
-20 -20 -21 -21 -20 -20 -20 -20 -20 -20 -21 -21 -21 -21 -21 -21 -22 -22 -22 -22 -22 -22 -23 -23 -23 -24 -25 -25 -26 -26 -26 -26 -26 -26 -26 -27 -28 -29 -30 -32 -33 -33 -34
-21 -21 -21 -20 -20 -20 -20 -21 -21 -21 -21 -21 -22 -22 -22 -22 -22 -22 -22 -22 -22 -23 -23 -24 -25 -25 -26 -26 -27 -27 -27 -27 -27 -27 -28 -28 -29 -30 -32 -34 -35 -36 -35
-21 -21 -21 -21 -21 -21 -21 -21 -21 -22 -22 -22 -22 -22 -22 -22 -22 -23 -23 -23 -23 -23 -24 -25 -26 -26 -27 -27 -28 -28 -28 -29 -29 -29 -30 -31 -32 -34 -35 -35 -36 -36 -36
-21 -21 -21 -21 -21 -21 -21 -22 -22 -22 -22 -22 -22 -22 -23 -23 -23 -23 -23 -24 -24 -25 -26 -27 -27 -28 -28 -29 -29 -29 -30 -30 -31 -31 -32 -34 -35 -36 -37 -36 -36 -36 -36
-21 -22 -21 -21 -22 -22 -22 -22 -22 -22 -22 -22 -22 -22 -23 -23 -24 -24 -24 -25 -26 -27 -27 -28 -28 -29 -29 -29 -30 -30 -31 -32 -33 -34 -35 -36 -36 -37 -37 -37 -36 -36 -36
-22 -22 -22 -22 -22 -22 -22 -23 -23 -22 -22 -22 -23 -23 -23 -24 -24 -25 -25 -26 -26 -27 -27 -28 -28 -29 -29 -29 -30 -31 -32 -34 -36 -36 -36 -37 -37 -38 -38 -37 -37 -37 -37
-22 -22 -22 -22 -22 -23 -23 -23 -23 -23 -23 -23 -23 -23 -24 -24 -25 -25 -26 -27 -28 -28 -29 -29 -29 -29 -30 -31 -31 -32 -35 -36 -37 -37 -37 -37 -37 -37 -37 -38 -38 -38 -37
-22 -22 -22 -23 -23 -23 -23 -23 -23 -23 -24 -24 -24 -24 -25 -25 -26 -27 -27 -28 -29 -29 -29 -30 -30 -31 -32 -32 -34 -35 -36 -37 -37 -37 -37 -37 -38 -38 -38 -38 -38 -38 -38
-23 -23 -23 -23 -23 -23 -23 -23 -23 -24 -25 -25 -25 -25 -26 -27 -28 -28 -29 -29 -30 -31 -31 -31 -32 -32 -33 -35 -36 -37 -37 -37 -37 -37 -38 -38 -38 -38 -38 -39 -39 -38 -38
-23 -23 -23 -23 -23 -23 -23 -23 -24 -24 -25 -26 -27 -27 -27 -28 -29 -30 -30 -30 -31 -31 -32 -32 -33 -34 -35 -36 -37 -37 -37 -37 -38 -38 -39 -39 -39 -39 -39 -39 -39 -39 -39
-23 -23 -23 -23 -23 -23 -24 -24 -25 -25 -26 -26 -27 -28 -29 -30 -30 -31 -31 -32 -32 -32 -32 -33 -35 -36 -37 -37 -37 -37 -38 -38 -39 -39 -39 -40 -40 -40 -39 -39 -39 -39 -39
-23 -23 -23 -23 -24 -24 -24 -25 -25 -26 -26 -27 -28 -29 -30 -30 -30 -31 -31 -32 -32 -33 -34 -35 -36 -37 -37 -37 -38 -38 -39 -39 -39 -40 -40 -40 -41 -41 -41 -40 -40 -40 -39
-23 -23 -24 -24 -24 -25 -25 -25 -26 -26 -27 -28 -29 -30 -30 -31 -31 -31 -32 -33 -33 -34 -36 -37 -37 -38 -38 -39 -39 -39 -39 -40 -40 -40 -40 -41 -41 -41 -41 -41 -41 -40 -40
-24 -24 -24 -25 -25 -25 -25 -26 -26 -27 -28 -29 -30 -30 -31 -31 -32 -32 -33 -34 -35 -36 -37 -38 -38 -39 -39 -39 -40 -40 -40 -40 -40 -40 -40 -41 -41 -41 -42 -42 -42 -41 -41
-24 -25 -25 -25 -25 -25 -26 -27 -27 -28 -29 -29 -30 -31 -31 -32 -33 -33 -34 -36 -37 -37 -38 -39 -39 -39 -40 -40 -41 -41 -41 -41 -41 -41 -41 -41 -42 -42 -42 -43 -42 -41 -41
-25 -25 -25 -25 -26 -26 -27 -27 -28 -29 -30 -31 -31 -32 -32 -33 -34 -35 -36 -37 -38 -38 -39 -40 -40 -41 -41 -41 -41 -41 -41 -42 -41 -41 -41 -42 -42 -42 -43 -43 -42 -42 -42
-25 -25 -26 -26 -26 -27 -27 -28 -29 -30 -31 -32 -32 -33 -34 -35 -36 -37 -38 -38 -39 -39 -40 -41 -41 -42 -42 -42 -42 -42 -42 -42 -42 -43 -42 -43 -43 -43 -43 -43 -43 -42 -42

GFSGL_500_temp_219.txt.gz
Temp
-14 -14 -14 -14 -14 -14 -14 -14 -14 -15 -15 -16 -16 -16 -16 -16 -16 -17 -17 -18 -18 -18 -19 -19 -19 -19 -19 -19 -20 -20 -20 -20 -20 -20 -20 -19 -19 -19 -19 -19 -19 -19 -19
-14 -14 -15 -14 -15 -14 -14 -15 -15 -16 -16 -16 -17 -17 -17 -17 -17 -17 -18 -18 -19 -19 -20 -19 -19 -20 -20 -21 -20 -21 -20 -20 -20 -19 -20 -20 -20 -20 -20 -20 -21 -21 -21
-15 -15 -15 -15 -15 -15 -16 -16 -16 -16 -16 -17 -17 -17 -17 -18 -18 -19 -19 -20 -20 -20 -20 -20 -21 -21 -21 -21 -21 -21 -20 -20 -21 -21 -21 -21 -21 -21 -21 -21 -21 -22 -22
-16 -16 -16 -16 -16 -17 -17 -17 -17 -17 -17 -18 -18 -18 -18 -19 -20 -20 -20 -20 -20 -20 -21 -21 -21 -21 -21 -21 -21 -21 -21 -21 -21 -21 -21 -21 -22 -22 -22 -22 -22 -23 -22
-17 -17 -17 -17 -17 -17 -17 -17 -17 -18 -18 -18 -19 -19 -20 -20 -20 -20 -20 -20 -21 -21 -21 -21 -21 -21 -21 -20 -21 -21 -21 -21 -21 -22 -22 -22 -23 -23 -23 -23 -22 -22 -22
-17 -17 -17 -18 -18 -18 -18 -18 -19 -19 -20 -20 -21 -21 -20 -20 -20 -20 -21 -21 -21 -21 -21 -21 -21 -21 -21 -21 -21 -22 -22 -22 -22 -23 -23 -23 -24 -24 -24 -24 -24 -23 -22
-18 -18 -18 -18 -19 -19 -19 -19 -20 -20 -21 -21 -20 -20 -20 -20 -21 -21 -21 -21 -21 -21 -21 -21 -21 -21 -21 -22 -22 -23 -23 -24 -24 -24 -24 -25 -25 -26 -25 -25 -26 -25 -25
-18 -19 -19 -19 -19 -20 -20 -20 -21 -21 -21 -21 -21 -21 -21 -21 -21 -21 -21 -21 -21 -21 -22 -22 -22 -22 -22 -23 -23 -23 -24 -25 -25 -26 -26 -26 -27 -27 -27 -27 -26 -26 -26
-19 -19 -20 -20 -20 -21 -21 -21 -21 -21 -21 -21 -21 -21 -21 -21 -21 -21 -21 -21 -22 -22 -22 -22 -23 -23 -23 -24 -24 -24 -25 -25 -26 -27 -28 -28 -28 -28 -28 -28 -29 -29 -29
-20 -20 -21 -21 -21 -21 -21 -21 -21 -21 -21 -22 -21 -21 -21 -21 -21 -22 -22 -22 -22 -23 -23 -24 -24 -24 -24 -25 -25 -25 -25 -26 -26 -27 -28 -28 -28 -29 -30 -32 -33 -33 -33
-21 -21 -21 -21 -21 -21 -21 -22 -21 -22 -22 -22 -22 -22 -22 -22 -22 -22 -22 -22 -23 -23 -24 -24 -25 -25 -26 -26 -26 -27 -27 -27 -28 -28 -28 -28 -29 -30 -32 -34 -35 -35 -34
-21 -21 -21 -21 -22 -22 -22 -22 -22 -22 -22 -22 -22 -22 -22 -22 -23 -23 -23 -23 -23 -24 -24 -25 -25 -26 -26 -27 -27 -28 -28 -29 -29 -29 -29 -29 -30 -32 -34 -35 -35 -36 -36
-21 -21 -22 -22 -22 -22 -22 -22 -22 -22 -22 -23 -23 -23 -23 -23 -23 -23 -24 -24 -24 -25 -25 -25 -26 -26 -27 -28 -29 -29 -29 -30 -30 -30 -31 -32 -34 -34 -35 -35 -35 -36 -36
-22 -22 -22 -22 -22 -22 -23 -23 -23 -23 -23 -23 -23 -23 -23 -23 -24 -24 -24 -25 -25 -25 -26 -26 -27 -28 -28 -29 -29 -30 -30 -31 -31 -32 -33 -35 -35 -35 -36 -36 -36 -37 -37
-22 -22 -23 -23 -23 -23 -23 -23 -23 -23 -23 -23 -23 -23 -24 -24 -25 -25 -25 -25 -25 -25 -26 -27 -27 -28 -29 -30 -30 -30 -31 -32 -33 -34 -35 -36 -36 -36 -37 -38 -38 -38 -38
-23 -23 -23 -23 -24 -23 -23 -23 -23 -23 -23 -23 -23 -24 -24 -24 -25 -25 -25 -25 -26 -26 -27 -28 -29 -29 -30 -30 -31 -32 -32 -34 -35 -36 -36 -37 -37 -37 -38 -39 -39 -39 -39
-23 -23 -23 -23 -23 -23 -23 -24 -24 -24 -24 -24 -24 -24 -24 -25 -25 -25 -25 -26 -27 -27 -28 -29 -30 -30 -31 -32 -32 -33 -35 -35 -36 -37 -37 -38 -38 -38 -39 -39 -39 -39 -40
-23 -23 -23 -23 -23 -23 -24 -24 -24 -24 -24 -25 -24 -25 -25 -25 -25 -26 -26 -27 -28 -29 -30 -31 -31 -32 -32 -33 -34 -35 -36 -37 -37 -38 -38 -39 -39 -39 -39 -39 -39 -39 -40
-23 -23 -23 -24 -24 -24 -24 -24 -24 -24 -25 -25 -25 -25 -25 -26 -27 -27 -28 -29 -29 -30 -31 -32 -32 -33 -34 -35 -36 -37 -37 -38 -38 -39 -39 -39 -39 -39 -39 -40 -40 -40 -40
-23 -24 -24 -24 -24 -24 -24 -24 -24 -25 -25 -25 -25 -25 -26 -27 -28 -29 -30 -31 -31 -32 -32 -33 -34 -35 -36 -36 -37 -38 -38 -39 -39 -39 -40 -40 -40 -40 -40 -40 -40 -40 -41
-24 -24 -24 -24 -24 -24 -24 -24 -25 -25 -25 -25 -26 -26 -27 -28 -29 -30 -30 -31 -32 -32 -33 -35 -36 -36 -37 -37 -38 -39 -39 -40 -40 -40 -40 -40 -41 -41 -41 -40 -40 -41 -41
-24 -24 -24 -24 -24 -24 -25 -25 -25 -25 -25 -26 -27 -28 -28 -29 -30 -30 -31 -32 -33 -34 -35 -36 -37 -37 -38 -39 -39 -40 -40 -40 -40 -40 -41 -41 -42 -41 -41 -41 -41 -41 -41
-24 -24 -25 -25 -25 -25 -25 -25 -25 -26 -26 -27 -28 -28 -29 -30 -31 -32 -33 -34 -35 -36 -37 -37 -38 -38 -39 -40 -40 -41 -41 -41 -41 -41 -42 -42 -42 -42 -42 -42 -42 -42 -42
-25 -25 -25 -25 -25 -25 -25 -26 -26 -26 -27 -28 -29 -30 -31 -31 -32 -34 -35 -35 -36 -37 -38 -38 -39 -40 -40 -41 -41 -42 -42 -42 -42 -43 -43 -43 -43 -42 -42 -43 -43 -43 -43
-25 -25 -25 -25 -25 -26 -26 -26 -27 -28 -29 -29 -30 -31 -31 -33 -34 -35 -36 -37 -37 -38 -39 -39 -40 -41 -41 -42 -42 -43 -43 -43 -43 -43 -44 -44 -44 -43 -43 -43 -44 -43 -43
-25 -25 -25 -25 -26 -26 -26 -27 -28 -29 -29 -30 -31 -32 -34 -34 -35 -36 -37 -37 -38 -39 -40 -40 -41 -42 -42 -43 -43 -44 -44 -44 -44 -45 -45 -45 -44 -44 -44 -44 -44 -44 -44

GFSGL_500_temp_222.txt.gz
Temp
-14 -14 -14 -14 -14 -14 -14 -14 -14 -14 -15 -15 -15 -16 -16 -16 -16 -17 -17 -18 -18 -18 -19 -19 -20 -20 -20 -20 -20 -20 -20 -20 -20 -20 -20 -20 -19 -19 -19 -19 -19 -19 -20
-15 -15 -14 -15 -15 -15 -15 -15 -15 -15 -16 -16 -16 -17 -17 -17 -17 -18 -19 -19 -19 -20 -20 -20 -20 -20 -20 -20 -21 -20 -20 -21 -20 -20 -20 -20 -20 -20 -20 -20 -21 -21 -21
-15 -15 -15 -15 -15 -15 -16 -16 -16 -16 -17 -17 -17 -18 -18 -18 -19 -19 -19 -20 -20 -20 -20 -20 -20 -21 -21 -21 -21 -21 -21 -21 -20 -20 -20 -21 -21 -21 -21 -22 -22 -22 -22
-16 -16 -16 -16 -16 -16 -17 -17 -17 -17 -17 -18 -18 -19 -19 -19 -19 -20 -20 -20 -20 -20 -21 -21 -21 -21 -21 -21 -21 -21 -21 -21 -21 -21 -21 -22 -22 -22 -22 -22 -22 -23 -23
-16 -16 -16 -16 -16 -17 -17 -17 -18 -18 -18 -19 -19 -20 -20 -20 -21 -21 -20 -21 -21 -21 -21 -21 -21 -21 -21 -21 -21 -21 -21 -21 -22 -22 -23 -23 -23 -23 -23 -23 -23 -22 -22
-16 -16 -17 -17 -17 -18 -18 -19 -19 -19 -20 -20 -20 -21 -21 -21 -21 -21 -21 -22 -22 -22 -22 -21 -21 -21 -21 -21 -21 -22 -22 -22 -23 -23 -23 -23 -23 -23 -23 -23 -23 -23 -23
-17 -17 -17 -18 -19 -19 -20 -20 -20 -21 -21 -21 -21 -21 -21 -21 -21 -21 -22 -21 -22 -22 -22 -22 -21 -21 -21 -22 -22 -23 -24 -24 -24 -24 -24 -24 -24 -25 -24 -25 -25 -25 -25
-18 -18 -19 -20 -20 -20 -21 -21 -21 -21 -21 -21 -21 -21 -21 -21 -21 -21 -22 -22 -22 -22 -22 -22 -22 -22 -22 -23 -23 -24 -24 -25 -24 -25 -26 -26 -26 -27 -27 -27 -27 -26 -26
-19 -20 -20 -21 -21 -21 -21 -21 -21 -21 -21 -21 -21 -21 -22 -21 -21 -22 -22 -22 -22 -22 -22 -23 -23 -23 -23 -24 -24 -24 -24 -25 -25 -26 -27 -27 -28 -28 -28 -28 -29 -29 -28
-21 -21 -21 -21 -21 -21 -21 -21 -21 -21 -21 -22 -22 -22 -22 -22 -22 -22 -22 -22 -22 -23 -23 -24 -24 -24 -24 -25 -25 -25 -25 -25 -26 -26 -27 -28 -29 -29 -30 -30 -31 -31 -32
-21 -21 -21 -21 -21 -21 -21 -21 -21 -22 -22 -22 -22 -22 -22 -23 -22 -22 -22 -23 -23 -23 -24 -25 -25 -25 -25 -25 -26 -26 -26 -26 -27 -28 -28 -28 -29 -30 -31 -32 -33 -34 -35
-21 -21 -21 -21 -21 -21 -21 -22 -22 -23 -23 -23 -23 -23 -23 -23 -23 -23 -23 -24 -24 -24 -24 -25 -25 -25 -25 -26 -27 -27 -28 -28 -28 -29 -29 -30 -31 -31 -33 -34 -35 -36 -36
-21 -21 -21 -21 -21 -22 -22 -23 -23 -23 -23 -23 -23 -23 -23 -23 -23 -24 -24 -24 -25 -25 -25 -25 -25 -26 -26 -27 -28 -28 -28 -29 -29 -30 -31 -32 -33 -33 -34 -35 -36 -37 -37
-21 -21 -21 -21 -22 -23 -23 -23 -23 -23 -23 -23 -23 -23 -24 -24 -24 -24 -25 -25 -25 -25 -25 -26 -26 -27 -27 -28 -28 -29 -30 -30 -31 -32 -33 -34 -35 -35 -36 -36 -37 -37 -37
-21 -21 -22 -23 -23 -23 -24 -23 -23 -23 -24 -23 -24 -24 -24 -25 -25 -25 -25 -25 -25 -26 -26 -26 -27 -27 -28 -29 -30 -31 -31 -32 -33 -34 -35 -35 -36 -36 -37 -37 -37 -37 -38
-22 -23 -24 -23 -23 -23 -23 -23 -24 -24 -24 -24 -24 -24 -24 -25 -25 -26 -26 -26 -26 -26 -27 -27 -28 -28 -29 -29 -30 -31 -33 -34 -34 -35 -36 -36 -36 -37 -37 -38 -38 -38 -38
-23 -23 -23 -23 -23 -23 -24 -24 -24 -24 -24 -24 -24 -25 -25 -25 -25 -26 -26 -26 -27 -27 -27 -28 -29 -29 -29 -31 -32 -33 -34 -35 -36 -36 -37 -37 -38 -38 -38 -38 -38 -39 -39
-23 -23 -23 -24 -24 -24 -24 -24 -24 -25 -25 -25 -25 -25 -25 -26 -26 -26 -26 -27 -27 -28 -28 -28 -29 -30 -32 -33 -34 -35 -36 -36 -37 -37 -38 -38 -39 -39 -39 -39 -39 -39 -39
-23 -24 -24 -24 -24 -24 -24 -24 -25 -25 -25 -25 -25 -25 -26 -26 -26 -27 -27 -27 -28 -28 -29 -30 -32 -33 -34 -35 -35 -36 -37 -37 -38 -39 -39 -39 -40 -40 -40 -40 -40 -40 -40
-24 -24 -24 -24 -24 -24 -24 -24 -25 -25 -25 -25 -26 -26 -26 -27 -27 -28 -28 -28 -29 -30 -31 -33 -34 -35 -35 -36 -37 -37 -38 -39 -39 -40 -40 -40 -41 -41 -41 -41 -41 -41 -41
-24 -24 -24 -24 -24 -24 -24 -25 -25 -25 -26 -26 -26 -27 -27 -27 -28 -28 -29 -29 -31 -32 -33 -34 -35 -36 -36 -37 -38 -39 -39 -40 -40 -41 -41 -42 -42 -42 -42 -42 -42 -42 -41
-24 -24 -24 -25 -25 -25 -25 -25 -26 -26 -26 -26 -27 -27 -27 -28 -28 -29 -30 -31 -33 -34 -34 -35 -36 -37 -37 -38 -39 -40 -40 -41 -42 -42 -42 -43 -43 -43 -43 -43 -43 -42 -42
-24 -25 -25 -25 -25 -25 -26 -26 -26 -26 -26 -27 -27 -28 -28 -29 -29 -31 -32 -33 -34 -35 -35 -36 -37 -38 -39 -40 -40 -41 -42 -42 -43 -43 -43 -44 -44 -44 -44 -44 -43 -43 -43
-25 -25 -25 -25 -26 -26 -26 -26 -26 -26 -27 -28 -28 -28 -29 -30 -31 -33 -34 -34 -35 -36 -37 -38 -39 -39 -40 -41 -42 -42 -43 -43 -44 -44 -44 -44 -45 -45 -45 -44 -44 -44 -44
-25 -25 -25 -26 -26 -26 -26 -26 -26 -27 -28 -28 -29 -29 -30 -32 -33 -34 -35 -35 -36 -37 -38 -39 -40 -41 -42 -42 -43 -44 -44 -45 -45 -45 -46 -46 -46 -46 -46 -45 -45 -45 -44
-25 -25 -26 -26 -26 -26 -26 -27 -28 -28 -28 -29 -29 -31 -33 -34 -35 -35 -35 -36 -37 -38 -40 -41 -41 -42 -42 -43 -44 -45 -46 -46 -46 -47 -47 -47 -46 -46 -46 -46 -46 -45 -45